Simultaneous Nadir Overpasses (SNOs) Predictions

Prediction of SNOs between LANDSAT-8 and METOP-B Satellite Orbit:

Table of predicted SNOs for the next 14.0 days since TLE Epoch: 5/11/2024
Index Date (LANDSAT-8) Time (LANDSAT-8) Lat,Lon (LANDSAT-8) SZA (LANDSAT-8 ) Date (METOP-B) Time (METOP-B) Lat,Lon (METOP-B) SZA (METOP-B ) Distance(km) Time Diff (sec)
1 05/12/2024 20:35:24 81.31, -86.51 65.34 05/12/2024 20:34:24 81.32, -86.52 65.31 0.38 60
2 05/12/2024 21:24:50 -81.33, 81.40 114.64 05/12/2024 21:25:03 -81.33, 81.45 114.62 0.90 13
3 05/15/2024 16:09:33 81.32, -19.95 64.69 05/15/2024 16:08:39 81.32, -20.03 64.65 1.34 54
4 05/15/2024 16:58:59 -81.34, 147.98 115.28 05/15/2024 16:59:18 -81.33, 147.97 115.28 0.34 19
5 05/18/2024 11:43:42 81.32, 46.43 64.05 05/18/2024 11:42:54 81.32, 46.57 64.05 2.51 48
6 05/18/2024 12:33:08 -81.33,-145.62 115.92 05/18/2024 12:33:34 -81.33,-145.78 115.93 2.75 26
7 05/21/2024 07:17:49 81.32, 113.02 63.48 05/21/2024 07:17:09 81.32, 112.91 63.45 1.84 40
8 05/21/2024 08:07:15 -81.34, -79.02 116.48 05/21/2024 08:07:48 -81.34, -79.02 116.47 0.42 33
9 05/24/2024 02:51:54 81.32, 179.43 62.93 05/24/2024 02:51:22 81.32, 179.37 62.91 1.05 32



Historial Predications of SNOs between LANDSAT-8 and METOP-B
